Regional Weather Roundup
Issued by NWS

Home | Current Version | Previous Version | Text Only | Print | Product List | Glossary Off
Versions: 1 2 3 4 5 6 7 8 9 10 11 12 13 14 15 16 17 18 19 20 21 22 23 24 25 26 27 28 29 30 31 32 33 34 35 36 37 38 39 40 41 42 43 44 45 46 47 48 49 50

000
ASUS45 KBOI 291010
RWRID
WEATHER ROUNDUP FOR IDAHO
NATIONAL WEATHER SERVICE BOISE ID
400 AM MDT TUE JUL 29 2014

NOTE: "FAIR" INDICATES FEW OR NO CLOUDS BELOW 12000 FEET
WITH NO SIGNIFICANT WEATHER AND/OR OBSTRUCTIONS TO VISIBILITY

IDZ012-014-291100-
SOUTHWEST IDAHO


CITY           SKY/WX    TMP DP  RH WIND       PRES   REMARKS
BOISE          MOCLDY    79  48  33 SE8       30.06S
CALDWELL       MOCLDY    75  46  35 S6        30.07S
MOUNTAIN HOME  PTCLDY    74  52  46 SE8       30.08S
$$

IDZ016-017-291100-
SOUTHCENTRAL IDAHO


CITY           SKY/WX    TMP DP  RH WIND       PRES   REMARKS
BURLEY         MOCLDY    66  57  72 NE7       30.16S
JEROME         CLOUDY    65  58  78 NE13      30.16S
TWIN FALLS     MOCLDY    68  55  63 CALM      30.16S
$$

IDZ019>023-291100-
SOUTHEAST IDAHO


CITY           SKY/WX    TMP DP  RH WIND       PRES   REMARKS
IDAHO FALLS    CLOUDY    62  59  90 CALM      30.23F
POCATELLO      CLOUDY    63  61  93 E3        30.21S
REXBURG        CLOUDY    63  55  75 SE5       30.24F
$$

IDZ006-010-011-018-031-032-291100-
CENTRAL IDAHO MOUNTAINS


CITY           SKY/WX    TMP DP  RH WIND       PRES   REMARKS
MCCALL         PTCLDY    61  49  64 CALM      30.22S
HAILEY         PTCLDY    61  48  63 W8        30.29F
STANLEY          N/A     45  43  93 S3        30.38S
SALMON         PTCLDY    55  48  76 CALM      30.21R
CHALLIS        PTCLDY    57  44  62 SW3       30.27S
$$

IDZ002-004-006-007-026-291100-
NORTHERN IDAHO


CITY           SKY/WX    TMP DP  RH WIND       PRES   REMARKS
LEWISTON       CLEAR     75  40  28 S5        30.00R
LOWELL           N/A     63  57  81 N3        30.07R
COEUR D`ALENE  CLEAR     64  54  68 SE7       30.06S
MULLAN PASS    CLEAR     69  37  30 SE5       30.32S
$$


USA.gov is the U.S. government's official web portal to all federal, state and local government web resources and services.